COSMOS 1275 DEB, 12966

Orbit data source: Space-Track

COSMOS 1275 DEB, 12966 is space debris in LEO originally from a launch on Thu, 04 Jun 1981 UTC launched from the Plesetsk Missile And Space Complex (PKMTR). Debris objects in space refer to the collection of defunct objects orbiting the Earth. Examples of debris include non-operational satellites, rocket bodies, and fragments generated from explosions, collisions, or faulty payload assembly.

Loading next visibility...
Identifier
12966, 1981-053EM
Orbit
LEO
Country
Flag of CISCIS
Related business
Manufacturer
Unknown
Mission
Spacecraft
Bus & Motor
Unknown
Mass
Unknown
Launch date (UTC)
1981-06-04 (45 years ago)
Launch vehicle
Unknown
Launch site
Plesetsk Missile And Space Complex (PKMTR)
Object type
Payload
Rocket body
Debris
Shape & HBR
Unknown shape, 0.1 m
Radar Cross Section
Small (<0.1 m²)

Expand to show TLE details & history
Last TLE update: 14 hours ago

TLE from 14 hours ago
0 COSMOS 1275 DEB
1 12966U 81053EM  26145.55098537  .00001333  00000-0  71040-3 0  9996
2 12966  82.9393 274.9826 0030120 345.4337 146.2932 14.12475363262107
Epoch: 2026-05-25T13:13Z
TLE epoch observation values (Epoch: 2026-05-25T13:13:25.135Z)
Latitude
47.69686°
Longitude
5.70955°
Altitude
876.487 km
Speed
7.409 km/s
True Right ascension
05h 48m 48s
True Declination
47° 31' 42"
Sunlit
Object was in daylight at epoch
Visualization orbit readout
Latitude
Unknown
Longitude
Unknown
Altitude
Unknown
Speed
Unknown
Apparent Right ascension
Unknown
Apparent Declination
Unknown
Sunlit
N/A
Visualization observer readout
Local Sidereal Time
12:07:38
Azimuth
Unknown
Elevation
Unknown
Doppler factor
Unknown
Orbital elements
Apogee altitude
869.776 km
Perigee altitude
826.245 km
Semi-major axis
7,226.148 km
Eccentricity
0.00301
Inclination
82.9393°
RAAN
274.9826°
Arg. of periapsis
345.4337°
True anomaly
146.48414°
Mean anomaly
146.2932°
Eccentric anomaly
146.38873°
Mean motion
3.53332 °/min
Orbital period
101.89 mins
BSTAR
0.0007104
Loading maneuver chart data...
Computing Atmospheric mass density...
Loading historical data...
Loading historical data...
Loading historical data...
Loading historical data...
Loading historical data...
Loading historical data...
Loading historical data...

Documentation

Showing up to 5 results
|